Home > Weather > Borås > Past weeks

Flag for Sweden Weather for the Past 2 Weeks in Borås, Sweden

Now
45 °F

Drizzle. Partly sunny.


Feels Like: 41 °F
Forecast: 36 / 55 °F
Wind: 6 mph from West

Location: Gothenburg / Landvetter

Current Time: Apr 30, 2016 at 8:01:35 PM

Latest Report: Apr 30, 2016 at 7:20 PM


Visibility: N/A

Pressure: 30.15 "Hg

Humidity: 87%

Dew Point: 41 °F

Location of BoråsLocation

Historic Weather in Borås — Graph

°F

Borås Temperature Yesterday

Maximum temperature yesterday: 50 °F (at 3:20 PM)
Minimum temperature yesterday: 36 °F (at 12:20 AM)
Average temperature yesterday: 42 °F

High & Low Weather Summary for the Past Weeks

 TemperatureHumidityPressure
High54 °F (Apr 20, 1:50 PM)100% (Apr 15, 8:20 PM)30.24 "Hg (Apr 15, 8:20 PM)
Low28 °F (Apr 24, 3:20 AM)29% (Apr 23, 12:50 PM)29.24 "Hg (Apr 17, 5:20 AM)
Average41 °F75%29.76 "Hg
* Reported Apr 15 7:20 PM — Apr 30 7:20 PM, Borås, Weather by CustomWeather, © 2016

Note: Actual official high and low records may vary slightly from our data, if they occured in-between our weather recording intervals... More about our weather records

Advertising

Borås Weather History for the Previous 24 Hours

Scroll right to see more
 ConditionsComfort  
Time TempWeatherWind HumidityBarometerVisibility
7:20 PM
Sat, Apr 30
45 °FDrizzle. Partly sunny.6 mph87%30.15 "HgN/A
6:20 PM48 °FPartly sunny.7 mph76%30.12 "HgN/A
5:50 PM46 °FScattered clouds.6 mph82%30.12 "HgN/A
5:20 PM46 °FDrizzle. Overcast.7 mph82%30.12 "HgN/A
4:50 PM46 °FDrizzle. Partly sunny.12 mph76%30.12 "HgN/A
4:20 PM48 °FPartly sunny.9 mph82%30.09 "HgN/A
3:50 PM48 °FPartly sunny.7 mph82%30.09 "HgN/A
3:20 PM46 °FDrizzle. Partly sunny.8 mph87%30.09 "HgN/A
2:50 PM45 °FLight rain. Partly sunny.13 mph87%30.09 "Hg5 mi
2:20 PM50 °FDrizzle. Partly sunny.14 mph62%30.09 "HgN/A
1:50 PM52 °FSprinkles. Scattered clouds.12 mph50%30.07 "HgN/A
1:20 PM52 °FSunny.18 mph50%30.07 "Hg10 mi
12:50 PM52 °FPassing clouds.13 mph54%30.07 "HgN/A
12:20 PM52 °FSunny.12 mph54%30.07 "Hg10 mi
11:50 AM50 °FSunny.12 mph58%30.07 "Hg10 mi
11:20 AM50 °FPassing clouds.13 mph58%30.07 "HgN/A
10:20 AM46 °FSunny.10 mph66%30.07 "Hg10 mi
9:50 AM46 °FSunny.12 mph66%30.07 "Hg10 mi
9:20 AM46 °FSunny.14 mph66%30.07 "Hg10 mi
8:50 AM46 °FSunny.13 mph66%30.04 "Hg10 mi
8:20 AM45 °FSunny.12 mph66%30.04 "Hg10 mi
7:50 AM45 °FSunny.12 mph71%30.04 "Hg10 mi
7:20 AM43 °FSunny.10 mph76%30.04 "Hg10 mi
6:50 AM43 °FSunny.9 mph76%30.04 "Hg10 mi
6:20 AM43 °FScattered clouds.12 mph71%30.04 "HgN/A
5:50 AM43 °FPassing clouds.10 mph76%30.04 "HgN/A
5:20 AM41 °FMostly cloudy.9 mph76%30.04 "HgN/A
4:20 AM41 °FPassing clouds.12 mph81%30.04 "HgN/A
3:50 AM41 °FPassing clouds.10 mph81%30.04 "HgN/A
3:20 AM41 °FPassing clouds.10 mph81%30.01 "HgN/A
2:50 AM41 °FPassing clouds.9 mph81%30.04 "HgN/A
2:20 AM41 °FPassing clouds.8 mph81%30.04 "HgN/A
1:50 AM41 °FPassing clouds.7 mph87%30.04 "HgN/A
1:20 AM41 °FLight rain. Partly cloudy.6 mph93%30.04 "Hg3 mi
12:50 AM41 °FPartly cloudy.7 mph93%30.04 "Hg4 mi
12:20 AM41 °FPartly cloudy.7 mph93%30.04 "Hg4 mi
11:50 PM
Fri, Apr 29
41 °FPartly cloudy.9 mph93%30.04 "Hg5 mi
11:20 PM41 °FLight rain. Partly cloudy.9 mph93%30.04 "Hg4 mi
10:50 PM41 °FPassing clouds.9 mph93%30.04 "HgN/A
10:20 PM43 °FPassing clouds.12 mph81%30.04 "HgN/A
9:50 PM43 °FDrizzle. Partly sunny.10 mph81%30.01 "HgN/A
9:20 PM43 °FLight rain. More clouds than sun.15 mph81%30.01 "HgN/A
8:50 PM43 °FLight rain. Cloudy.18 mph81%30.01 "HgN/A
8:20 PM45 °FDrizzle. Partly sunny.13 mph71%30.01 "HgN/A
Weather by CustomWeather, © 2016

See weather overviewHow to use our weather pages